This is the latest recevied weather packets stored in our database for station/object WX4SGA. If no packets are shown the sender has not sent any weather packets the latest 10 day(s).
| Time | Temp. | Humidity | Pressure | Rain* | Wind** | Luminosity | Snow |
|---|---|---|---|---|---|---|---|
| 1788196507 | 30.56° C | 71% | 1019.6 hPa | 0 mm | - | 663 W/m² | - |
| 1788196204 | 30° C | 71% | 1019.6 hPa | 0 mm | - | 835 W/m² | - |
| 1788195899 | 30° C | 77% | 1019.6 hPa | 0 mm | - | 864 W/m² | - |
| 1788195596 | 30° C | 75% | 1020 hPa | 0 mm | - | 162 W/m² | - |
| 1788195291 | 30° C | 74% | 1020 hPa | 0 mm | - | 924 W/m² | - |
| 1788194988 | 30.56° C | 73% | 1020 hPa | 0 mm | - | 961 W/m² | - |
| 1788194684 | 30° C | 74% | 1020 hPa | 0 mm | - | 871 W/m² | - |
| 1788194379 | 30° C | 74% | 1020 hPa | 0 mm | - | 840 W/m² | - |
| 1788194075 | 30° C | 74% | 1020 hPa | 0 mm | - | 815 W/m² | - |
| 1788193773 | 30° C | 74% | 1020 hPa | 0 mm | - | 807 W/m² | - |
| 1788193469 | 29.44° C | 72% | 1020 hPa | 0 mm | - | 781 W/m² | - |
| 1788193167 | 30° C | 73% | - | 0 mm | - | - | - |
| 1788192864 | 30° C | 73% | 1020.7 hPa | 0 mm | - | 781 W/m² | - |
| 1788192559 | 28.89° C | 77% | 1020.7 hPa | 0 mm | - | 848 W/m² | - |
| 1788192253 | 29.44° C | 77% | 1020.3 hPa | 0 mm | - | 598 W/m² | - |
| 1788191949 | 28.89° C | 80% | 1020.3 hPa | 0 mm | - | 792 W/m² | - |
| 1788191648 | 28.33° C | 81% | 1020.3 hPa | 0 mm | - | 223 W/m² | - |
| 1788191344 | 28.89° C | 84% | 1020.3 hPa | 0 mm | - | 880 W/m² | - |
| 1788191040 | 28.89° C | 78% | 1020.7 hPa | 0 mm | - | 255 W/m² | - |
| 1788190738 | 28.89° C | 78% | 1020.7 hPa | 0 mm | - | 726 W/m² | - |
| 1788190434 | 28.33° C | 79% | 1020.3 hPa | 0 mm | - | 752 W/m² | - |
| 1788190130 | 27.78° C | 83% | 1020.3 hPa | 0 mm | - | 732 W/m² | - |
| 1788189826 | 28.89° C | 82% | 1020.3 hPa | 0 mm | - | 162 W/m² | - |
| 1788189521 | 28.33° C | 82% | 1020.3 hPa | 0 mm | - | 686 W/m² | - |
| 1788189220 | 28.33° C | 83% | 1020.3 hPa | 0 mm | - | 642 W/m² | - |
* Rain latest hour (hover to see other rain measurements)
** Current wind speed in m/s (hover to see current wind gust speed)